Regional Weather Roundup
Issued by NWS Cleveland, OH

Home | Current Version | Previous Version | Graphics & Text | Print | Product List | Glossary On
Versions: 1 2 3 4 5 6 7 8 9 10 11 12 13 14 15 16 17 18 19 20 21 22 23 24 25 26 27 28 29 30 31 32 33 34 35 36 37 38 39 40 41 42 43 44 45 46 47 48 49 50
256
ASUS41 KCLE 242000
RWRCLE
OHIO REGIONAL WEATHER ROUNDUP
NATIONAL WEATHER SERVICE WILMINGTON, OH
400 PM EDT TUE APR 24 2018

NOTE: "FAIR" INDICATES FEW OR NO CLOUDS BELOW 12,000 FEET WITH NO
SIGNIFICANT WEATHER AND/OR OBSTRUCTIONS TO VISIBILITY.

OHZ001>008-015>018-024>027-034-035-043-044-242100-
   NORTHWEST OHIO

CITY           SKY/WX    TMP DP  RH WIND       PRES   REMARKS
DEFIANCE       CLOUDY    55  53  93 E8        29.98F FOG
FINDLAY        LGT RAIN  56  50  80 SE14      29.95F
TOLEDO EXPRESS LGT RAIN  53  53 100 E13       29.99F FOG
TOLEDO EXEC    LGT RAIN  52  50  93 E12G18    30.00F FOG
LIMA           CLOUDY    55  51  86 SE16      29.94F
$$

OHZ009>014-019>023-028>033-038-089-242100-
   NORTHEAST OHIO

CITY           SKY/WX    TMP DP  RH WIND       PRES   REMARKS
CLE-HOPKINS    LGT RAIN  55  51  86 E8        30.03F
CLE-LAKEFRONT  LGT RAIN  54  49  83 E7        30.01F
CUY CO. ARPT   LGT RAIN  54  52  94 SE14      30.03F
LORAIN-ELYRIA  LGT RAIN  54  47  77 E9        30.00F
ASHTABULA      CLOUDY    53  50  89 SE12      30.06F
AKRON-CANTON   LGT RAIN  53  49  86 E12       30.01F FOG
WOOSTER        NOT AVBL
MANSFIELD      PTSUNNY   53  51  93 E13       29.97F FOG
YOUNGSTOWN     LGT RAIN  52  49  89 E14       30.04F
$$

OHZ042-051>053-060>062-070>072-077>081-242100-
  SOUTHWEST OHIO

CITY           SKY/WX    TMP DP  RH WIND       PRES   REMARKS
CINC-COVINGTON DRIZZLE   55  55 100 NE9       29.89F FOG
CINC-LUNKEN    CLOUDY    56  55  97 NE5       29.91S FOG
HAMILTON       LGT RAIN  56  54  93 NE6       29.92S FOG
DAYTON         NOT AVBL
WRIGHT-PAT AFB NOT AVBL
DAYTON GENERAL CLOUDY    55  51  86 E8        29.91S
WILMINGTON     CLOUDY    54  54 100 E9        29.90F FOG
$$

OHZ036-037-039>041-045>050-054>059-063>069-073>076-082>088-242100-
  CENTRAL AND SOUTHEAST OHIO

CITY           SKY/WX    TMP DP  RH WIND       PRES   REMARKS
COLUMBUS       LGT RAIN  55  52  89 E15       29.93F
OSU AIRPORT    LGT RAIN  54  52  93 E9        29.93F
BOLTON FIELD   CLOUDY    54  52  94 E10G16    29.93F
RICKENBACK AFB NOT AVBL
NEWARK         LGT RAIN  55  52  89 E13       29.94F
MARION         CLOUDY    54  50  86 SE15      29.95F
LANCASTER      LGT RAIN  54  52  93 E16       29.94F FOG
ZANESVILLE     RAIN      53  50  89 E8        29.96F FOG
NEW PHILLY     LGT RAIN  54  51  90 E7        30.00F FOG
$$




USA.gov is the U.S. government's official web portal to all federal, state and local government web resources and services.